Simultaneous Nadir Overpasses (SNOs) Predictions

Prediction of SNOs between METOP-A and TERRA Satellite Orbit:

Table of predicted SNOs for the next 14.0 days since TLE Epoch: 3/23/2017
Index Date (METOP-A) Time (METOP-A) Lat,Lon (METOP-A) SZA (METOP-A ) Date (TERRA) Time (TERRA) Lat,Lon (TERRA) SZA (TERRA ) Distance(km) Time Diff (sec)
1 03/24/2017 14:04:58 -81.33,-163.62 97.67 03/24/2017 14:05:45 -81.33,-163.48 97.63 2.45 47
2 03/24/2017 14:55:37 81.34, 4.36 82.40 03/24/2017 14:55:11 81.34, 4.21 82.37 2.47 26
3 03/27/2017 09:39:20 -81.33, -97.08 98.73 03/27/2017 09:40:01 -81.33, -97.21 98.73 2.19 41
4 03/27/2017 10:30:00 81.33, 70.45 81.28 03/27/2017 10:29:27 81.33, 70.46 81.27 0.49 33
5 03/30/2017 05:13:42 -81.33, -30.56 99.79 03/30/2017 05:14:16 -81.34, -30.55 99.76 0.77 34
6 03/30/2017 06:04:22 81.33, 136.93 80.23 03/30/2017 06:03:42 81.34, 137.10 80.23 2.96 40
7 04/02/2017 00:48:04 -81.33, 35.55 100.88 04/02/2017 00:48:31 -81.33, 35.73 100.84 3.13 27
8 04/02/2017 01:38:43 81.33,-156.60 79.18 04/02/2017 01:37:57 81.33,-156.62 79.15 0.49 46
9 04/04/2017 20:22:26 -81.33, 102.03 101.92 04/04/2017 20:22:47 -81.32, 102.03 101.91 0.68 21




NCC Satellite Simultaneous Nadir Overpasses (SNOs) Prediction Service
